| time (UTC) | temp F | wind direction | speed MPH | gust MPH | rain 1hr in | rain 24hr in | rain mn in | humidity % | barometer mb |
| 20260506084258 | 52 | 64 | 4.0 | 10.0 | 0.00 | 1.46 | 0.04 | 93 | 1009.2 |
| 20260506083703 | 52 | 29 | 3.0 | 8.0 | 0.00 | 1.46 | 0.04 | 93 | 1009.2 |
| 20260506082710 | 52 | 30 | 3.0 | 12.0 | 0.00 | 1.46 | 0.04 | 93 | 1009.0 |
| 20260506081711 | 52 | 21 | 3.0 | 9.0 | 0.00 | 1.46 | 0.04 | 93 | 1008.8 |
| 20260506081305 | 52 | 12 | 5.0 | 7.0 | 0.00 | 1.46 | 0.04 | 93 | 1008.9 |
| 20260506080711 | 52 | 46 | 3.0 | 7.0 | 0.00 | 1.46 | 0.04 | 93 | 1008.8 |
| 20260506072730 | 52 | 42 | 5.0 | 11.0 | 0.00 | 2.20 | 0.04 | 93 | 1008.5 |
| 20260506071715 | 52 | 73 | 5.0 | 10.0 | 0.00 | 2.20 | 0.04 | 93 | 1008.4 |
| 20260506071327 | 52 | 31 | 5.0 | 10.0 | 0.00 | 2.20 | 0.04 | 93 | 1008.4 |
| 20260506070713 | 52 | 59 | 4.0 | 6.0 | 0.00 | 2.20 | 0.04 | 93 | 1008.3 |
| 20260506061704 | 52 | 32 | 1.0 | 5.0 | 0.00 | 3.23 | 0.04 | 94 | 1008.0 |
| 20260506061257 | 52 | 29 | 1.0 | 5.0 | 0.00 | 3.23 | 0.04 | 94 | 1007.9 |
| 20260506060705 | 52 | 11 | 2.0 | 5.0 | 0.00 | 3.23 | 0.04 | 94 | 1007.9 |
| 20260506051301 | 52 | 2 | 0.0 | 0.0 | 0.00 | 4.25 | 0.04 | 93 | 1007.6 |
| 20260506050709 | 52 | 2 | 0.0 | 0.0 | 0.00 | 4.25 | 0.04 | 93 | 1007.6 |
| 20260506044704 | 52 | 2 | 0.0 | 0.0 | 0.00 | 5.83 | 0.04 | 93 | 1007.4 |
| 20260506044258 | 52 | 2 | 0.0 | 0.0 | 0.00 | 5.83 | 0.04 | 93 | 1007.4 |
| 20260506043708 | 52 | 2 | 0.0 | 0.0 | 0.00 | 5.83 | 0.04 | 93 | 1007.3 |
| 20260506042655 | 52 | 357 | 0.0 | 0.0 | 0.00 | 5.83 | 0.04 | 93 | 1007.3 |
| 20260506041701 | 52 | 357 | 0.0 | 0.0 | 0.00 | 5.83 | 0.04 | 93 | 1007.2 |
| 20260506041316 | 52 | 357 | 0.0 | 0.0 | 0.00 | 5.83 | 0.04 | 93 | 1007.2 |
| 20260506040724 | 52 | 357 | 0.0 | 0.0 | 0.00 | 5.83 | 0.04 | 93 | 1007.1 |
| 20260506035710 | 52 | 357 | 0.0 | 0.0 | 0.00 | 5.87 | 0.04 | 93 | 1007.0 |
| 20260506034658 | 52 | 357 | 0.0 | 0.0 | 0.04 | 5.87 | 0.04 | 93 | 1007.1 |
| 20260506034312 | 52 | 357 | 0.0 | 0.0 | 0.04 | 5.87 | 0.04 | 93 | 1007.1 |
| 20260506033700 | 52 | 357 | 0.0 | 0.0 | 0.04 | 5.87 | 0.04 | 93 | 1007.2 |
| 20260506032707 | 52 | 357 | 0.0 | 0.0 | 0.04 | 5.87 | 0.04 | 93 | 1007.3 |
| 20260506031713 | 53 | 357 | 0.0 | 0.0 | 0.04 | 5.87 | 0.04 | 93 | 1007.4 |
| 20260506031306 | 53 | 357 | 0.0 | 0.0 | 0.04 | 5.87 | 0.04 | 93 | 1007.4 |
| 20260506030713 | 53 | 357 | 0.0 | 0.0 | 0.04 | 5.87 | 0.04 | 93 | 1007.4 |
| 20260506025701 | 53 | 357 | 0.0 | 0.0 | 0.00 | 6.06 | 0.03 | 93 | 1007.5 |
| 20260506024656 | 53 | 357 | 0.0 | 0.0 | 0.00 | 6.06 | 0.03 | 93 | 1007.6 |
| 20260506024303 | 53 | 357 | 0.0 | 0.0 | 0.04 | 6.06 | 0.03 | 93 | 1007.5 |
| 20260506023655 | 53 | 357 | 0.0 | 0.0 | 0.04 | 6.06 | 0.03 | 93 | 1007.5 |
| 20260506022720 | 53 | 357 | 0.0 | 0.0 | 0.04 | 6.06 | 0.03 | 93 | 1007.5 |
| 20260506021704 | 53 | 357 | 0.0 | 0.0 | 0.04 | 6.06 | 0.03 | 93 | 1007.6 |
| 20260506021259 | 53 | 357 | 0.0 | 0.0 | 0.08 | 6.06 | 0.03 | 93 | 1007.6 |
| 20260506020708 | 53 | 357 | 0.0 | 0.0 | 0.08 | 6.06 | 0.03 | 93 | 1007.6 |
| 20260506015701 | 53 | 277 | 0.0 | 0.0 | 0.12 | 6.06 | 0.03 | 93 | 1007.6 |
| 20260506014708 | 53 | 277 | 0.0 | 0.0 | 0.12 | 6.06 | 0.03 | 93 | 1007.7 |
| 20260506014259 | 53 | 277 | 0.0 | 0.0 | 0.08 | 6.02 | 0.02 | 93 | 1007.6 |
| 20260506013712 | 53 | 277 | 0.0 | 0.0 | 0.08 | 6.02 | 0.02 | 93 | 1007.6 |
| 20260506012723 | 53 | 277 | 0.0 | 0.0 | 0.08 | 6.02 | 0.02 | 92 | 1007.7 |
| 20260506011707 | 53 | 277 | 0.0 | 0.0 | 0.08 | 6.02 | 0.02 | 93 | 1007.6 |
| 20260506011315 | 53 | 277 | 0.0 | 0.0 | 0.04 | 5.98 | 0.02 | 93 | 1007.7 |
| 20260506010707 | 53 | 277 | 0.0 | 0.0 | 0.04 | 5.98 | 0.02 | 93 | 1007.8 |
| 20260506005711 | 53 | 277 | 0.0 | 0.0 | 0.00 | 5.94 | 0.01 | 92 | 1007.9 |
| 20260506004657 | 53 | 277 | 0.0 | 0.0 | 0.00 | 5.94 | 0.01 | 92 | 1008.0 |
| 20260506004306 | 53 | 277 | 0.0 | 0.0 | 0.00 | 5.94 | 0.01 | 92 | 1008.0 |
| 20260506003657 | 53 | 277 | 0.0 | 0.0 | 0.04 | 5.94 | 0.01 | 92 | 1008.0 |
| 20260506002706 | 53 | 277 | 0.0 | 0.0 | 0.04 | 5.94 | 0.01 | 92 | 1008.0 |
| 20260506001712 | 53 | 277 | 0.0 | 0.0 | 0.04 | 5.94 | 0.01 | 92 | 1008.0 |
| 20260506001301 | 53 | 277 | 0.0 | 0.0 | 0.04 | 5.94 | 0.01 | 92 | 1008.1 |
| 20260506000734 | 53 | 277 | 0.0 | 0.0 | 0.04 | 5.94 | 0.01 | 92 | 1008.1 |
| 20260505235702 | 53 | 277 | 0.0 | 0.0 | 0.04 | 5.94 | 0.01 | 92 | 1008.2 |
| 20260505234711 | 53 | 277 | 0.0 | 0.0 | 0.04 | 5.94 | 0.01 | 92 | 1008.2 |
| 20260505234301 | 53 | 277 | 0.0 | 0.0 | 0.00 | 5.91 | 0.00 | 92 | 1008.1 |
| 20260505233710 | 53 | 277 | 0.0 | 0.0 | 0.00 | 5.91 | 0.00 | 92 | 1008.1 |
| 20260505232700 | 53 | 277 | 0.0 | 0.0 | 0.00 | 5.91 | 0.00 | 92 | 1008.2 |
| 20260505231725 | 53 | 277 | 0.0 | 0.0 | 0.00 | 5.91 | 0.00 | 92 | 1008.2 |
| 20260505231314 | 53 | 277 | 0.0 | 0.0 | 0.00 | 5.91 | 0.00 | 92 | 1008.3 |
| 20260505230724 | 53 | 277 | 0.0 | 0.0 | 0.00 | 5.91 | 0.00 | 92 | 1008.3 |
| 20260505225729 | 53 | 273 | 0.0 | 0.0 | 0.00 | 5.91 | 0.00 | 92 | 1008.3 |
| 20260505224658 | 53 | 273 | 0.0 | 0.0 | 0.00 | 5.91 | 0.00 | 91 | 1008.4 |
| 20260505224308 | 53 | 273 | 0.0 | 0.0 | 0.00 | 5.91 | 0.00 | 91 | 1008.4 |
| 20260505223657 | 53 | 273 | 0.0 | 0.0 | 0.00 | 5.91 | 0.00 | 91 | 1008.5 |
| 20260505222705 | 53 | 273 | 0.0 | 0.0 | 0.00 | 5.91 | 0.00 | 91 | 1008.5 |
| 20260505221726 | 53 | 273 | 0.0 | 0.0 | 0.00 | 5.91 | 0.00 | 91 | 1008.4 |
| 20260505221319 | 53 | 273 | 0.0 | 0.0 | 0.00 | 5.91 | 0.00 | 91 | 1008.5 |
| 20260505220727 | 53 | 273 | 0.0 | 0.0 | 0.00 | 5.91 | 0.00 | 91 | 1008.5 |
| 20260505215705 | 54 | 273 | 0.0 | 0.0 | 0.00 | 5.91 | 1.18 | 91 | 1008.5 |
| 20260505214715 | 54 | 273 | 0.0 | 0.0 | 0.00 | 5.91 | 1.18 | 91 | 1008.6 |
| 20260505214331 | 54 | 273 | 0.0 | 0.0 | 0.00 | 5.91 | 1.18 | 91 | 1008.6 |
| 20260505213658 | 54 | 273 | 0.0 | 0.0 | 0.00 | 5.91 | 1.18 | 91 | 1008.6 |
| 20260505212729 | 54 | 273 | 0.0 | 0.0 | 0.00 | 5.91 | 1.18 | 91 | 1008.6 |
| 20260505211656 | 54 | 273 | 0.0 | 0.0 | 0.00 | 5.91 | 1.18 | 91 | 1008.5 |
| 20260505211309 | 54 | 273 | 0.0 | 0.0 | 0.00 | 5.91 | 1.18 | 91 | 1008.5 |
| 20260505210658 | 54 | 273 | 0.0 | 0.0 | 0.00 | 5.91 | 1.18 | 91 | 1008.6 |
| 20260505205708 | 54 | 273 | 0.0 | 0.0 | 0.00 | 5.91 | 1.18 | 90 | 1008.6 |
| 20260505204717 | 54 | 273 | 0.0 | 0.0 | 0.00 | 5.91 | 1.18 | 90 | 1008.5 |
| 20260505204330 | 54 | 273 | 0.0 | 0.0 | 0.00 | 5.91 | 1.18 | 90 | 1008.4 |
| 20260505203657 | 54 | 273 | 0.0 | 0.0 | 0.00 | 5.91 | 1.18 | 90 | 1008.4 |
| 20260505202728 | 54 | 273 | 0.0 | 0.0 | 0.00 | 5.91 | 1.18 | 89 | 1008.4 |
| 20260505201712 | 54 | 273 | 0.0 | 0.0 | 0.00 | 5.91 | 1.18 | 89 | 1008.2 |
| 20260505201306 | 54 | 273 | 0.0 | 0.0 | 0.00 | 5.91 | 1.18 | 89 | 1008.2 |
| 20260505200714 | 54 | 273 | 0.0 | 0.0 | 0.00 | 5.91 | 1.18 | 90 | 1008.1 |
| 20260505195704 | 54 | 273 | 0.0 | 0.0 | 0.00 | 5.98 | 1.18 | 89 | 1008.1 |
| 20260505194715 | 55 | 273 | 0.0 | 0.0 | 0.00 | 5.98 | 1.18 | 89 | 1008.0 |
| 20260505194308 | 55 | 273 | 0.0 | 0.0 | 0.00 | 5.98 | 1.18 | 89 | 1008.2 |
| 20260505193657 | 55 | 273 | 0.0 | 0.0 | 0.00 | 5.98 | 1.18 | 89 | 1008.2 |
| 20260505192707 | 55 | 273 | 0.0 | 0.0 | 0.00 | 5.98 | 1.18 | 89 | 1008.3 |
| 20260505191656 | 55 | 2 | 0.0 | 0.0 | 0.00 | 5.98 | 1.18 | 88 | 1008.4 |
| 20260505191310 | 55 | 2 | 0.0 | 0.0 | 0.00 | 5.98 | 1.18 | 88 | 1008.4 |
| 20260505190659 | 55 | 2 | 0.0 | 0.0 | 0.00 | 5.98 | 1.18 | 88 | 1008.3 |
| 20260505185709 | 55 | 2 | 0.0 | 0.0 | 0.00 | 6.18 | 1.18 | 88 | 1008.2 |
| 20260505184719 | 55 | 2 | 0.0 | 0.0 | 0.00 | 6.18 | 1.18 | 88 | 1008.1 |
| 20260505184312 | 55 | 2 | 0.0 | 0.0 | 0.00 | 6.18 | 1.18 | 88 | 1008.1 |
| 20260505183701 | 55 | 2 | 0.0 | 0.0 | 0.00 | 6.18 | 1.18 | 88 | 1008.1 |
| 20260505182730 | 56 | 2 | 0.0 | 2.0 | 0.00 | 6.18 | 1.18 | 88 | 1008.1 |
| 20260505181735 | 56 | 2 | 0.0 | 2.0 | 0.00 | 6.18 | 1.18 | 88 | 1007.9 |
| 20260505181309 | 56 | 2 | 0.0 | 4.0 | 0.00 | 6.18 | 1.18 | 87 | 1007.9 |
| 20260505180658 | 56 | 346 | 0.0 | 1.0 | 0.00 | 6.18 | 1.18 | 87 | 1007.9 |
| 20260505175706 | 56 | 346 | 0.0 | 2.0 | 0.00 | 7.05 | 1.18 | 87 | 1007.8 |
| 20260505174656 | 57 | 313 | 0.0 | 4.0 | 0.00 | 7.05 | 1.18 | 87 | 1007.8 |
| 20260505174310 | 57 | 2 | 0.0 | 6.0 | 0.00 | 7.05 | 1.18 | 86 | 1007.7 |
| 20260505173659 | 57 | 340 | 1.0 | 6.0 | 0.00 | 7.05 | 1.18 | 87 | 1007.7 |
| 20260505172709 | 57 | 296 | 0.0 | 5.0 | 0.00 | 7.05 | 1.18 | 87 | 1007.9 |
| 20260505171700 | 58 | 344 | 0.0 | 5.0 | 0.00 | 7.05 | 1.18 | 87 | 1007.6 |
| 20260505171310 | 58 | 7 | 0.0 | 8.0 | 0.00 | 7.05 | 1.18 | 87 | 1007.6 |
| 20260505170721 | 58 | 7 | 2.0 | 9.0 | 0.00 | 7.05 | 1.18 | 87 | 1007.5 |
| 20260505165708 | 58 | 335 | 1.0 | 3.0 | 0.00 | 7.17 | 1.18 | 87 | 1007.4 |
| 20260505164701 | 58 | 334 | 2.0 | 5.0 | 0.00 | 7.17 | 1.18 | 87 | 1007.4 |
| 20260505164337 | 58 | 334 | 0.0 | 4.0 | 0.00 | 7.17 | 1.18 | 87 | 1007.4 |
| 20260505163705 | 58 | 289 | 1.0 | 5.0 | 0.00 | 7.17 | 1.18 | 86 | 1007.5 |
| 20260505162658 | 58 | 303 | 1.0 | 7.0 | 0.00 | 7.17 | 1.18 | 86 | 1007.5 |
| 20260505161700 | 59 | 290 | 0.0 | 5.0 | 0.00 | 7.17 | 1.18 | 87 | 1007.5 |
| 20260505161312 | 58 | 288 | 1.0 | 4.0 | 0.00 | 7.17 | 1.18 | 88 | 1007.5 |
| 20260505160705 | 58 | 292 | 0.0 | 0.0 | 0.00 | 7.17 | 1.18 | 88 | 1007.5 |
| 20260505152715 | 58 | 296 | 1.0 | 4.0 | 0.00 | 7.17 | 1.18 | 86 | 1007.3 |
| 20260505151731 | 58 | 342 | 0.0 | 2.0 | 0.00 | 7.17 | 1.18 | 87 | 1007.6 |
| 20260505151300 | 59 | 326 | 0.0 | 4.0 | 0.00 | 7.17 | 1.18 | 86 | 1007.6 |
| 20260505150710 | 59 | 300 | 1.0 | 5.0 | 0.00 | 7.17 | 1.18 | 86 | 1007.7 |
| 20260505124725 | 60 | 211 | 3.0 | 9.0 | 0.00 | 8.58 | 1.17 | 89 | 1007.6 |
| 20260505124312 | 60 | 219 | 3.0 | 10.0 | 0.00 | 8.58 | 1.17 | 90 | 1007.6 |
| 20260505123703 | 60 | 288 | 5.0 | 10.0 | 0.00 | 8.58 | 1.17 | 91 | 1007.7 |
| 20260505122708 | 59 | 272 | 3.0 | 9.0 | 0.00 | 8.58 | 1.17 | 91 | 1007.6 |
| 20260505121711 | 59 | 278 | 2.0 | 10.0 | 0.00 | 8.58 | 1.17 | 91 | 1007.6 |
| 20260505121300 | 59 | 287 | 1.0 | 10.0 | 0.00 | 8.58 | 1.17 | 92 | 1007.6 |
| 20260505120712 | 59 | 292 | 2.0 | 8.0 | 0.00 | 8.58 | 1.17 | 91 | 1007.7 |
| 20260505115701 | 59 | 294 | 2.0 | 9.0 | 0.00 | 8.82 | 1.17 | 92 | 1007.7 |
| 20260505114711 | 59 | 285 | 1.0 | 10.0 | 0.00 | 8.82 | 1.17 | 92 | 1007.7 |
| 20260505114301 | 59 | 265 | 2.0 | 10.0 | 0.00 | 8.82 | 1.17 | 93 | 1007.7 |
| 20260505113713 | 59 | 288 | 0.0 | 1.0 | 0.00 | 8.82 | 1.17 | 94 | 1007.7 |
| 20260505112717 | 58 | 229 | 0.0 | 6.0 | 0.00 | 8.82 | 1.17 | 94 | 1007.6 |
| 20260505111700 | 57 | 327 | 0.0 | 1.0 | 0.00 | 8.82 | 1.17 | 94 | 1007.7 |
| 20260505111309 | 58 | 340 | 0.0 | 3.0 | 0.00 | 8.82 | 1.17 | 94 | 1007.7 |
| 20260505110729 | 57 | 328 | 1.0 | 3.0 | 0.00 | 8.82 | 1.17 | 94 | 1007.7 |
| 20260505101657 | 56 | 357 | 0.0 | 6.0 | 0.08 | 8.82 | 1.17 | 94 | 1007.8 |
| 20260505101312 | 56 | 348 | 1.0 | 6.0 | 0.12 | 8.82 | 1.17 | 95 | 1007.9 |
| 20260505100658 | 56 | 348 | 0.0 | 5.0 | 0.20 | 8.82 | 1.17 | 95 | 1007.8 |
| 20260505095659 | 55 | 300 | 0.0 | 2.0 | 0.31 | 8.82 | 1.17 | 95 | 1007.8 |
| 20260505094659 | 55 | 298 | 0.0 | 0.0 | 0.43 | 8.82 | 1.17 | 95 | 1007.8 |
| 20260505094310 | 55 | 311 | 0.0 | 0.0 | 0.51 | 8.82 | 1.17 | 94 | 1007.6 |
| 20260505093710 | 55 | 269 | 0.0 | 0.0 | 0.59 | 8.82 | 1.17 | 94 | 1007.7 |
| 20260505092715 | 54 | 298 | 0.0 | 4.0 | 0.71 | 8.78 | 1.16 | 94 | 1007.7 |
| 20260505091716 | 54 | 308 | 2.0 | 7.0 | 0.83 | 8.74 | 1.15 | 94 | 1007.6 |
| 20260505091309 | 54 | 296 | 1.0 | 4.0 | 0.87 | 8.70 | 1.14 | 94 | 1007.5 |
| 20260505090714 | 54 | 296 | 0.0 | 4.0 | 0.87 | 8.62 | 1.13 | 94 | 1007.5 |
| 20260505085714 | 54 | 290 | 2.0 | 8.0 | 0.91 | 8.50 | 1.10 | 94 | 1007.5 |
| 20260505084700 | 54 | 290 | 1.0 | 7.0 | 0.91 | 8.35 | 1.07 | 94 | 1007.5 |